Location: Montgomery
(32.3670°N, 86.3000°W)
Time: 14:24:58
(UTC-05:00)

Tiangong 2 - Visible Passes

Search period start: 26 April 2018 00:00
Search period end: 06 May 2018 00:00
Orbit: 381 x 388 km, 42.8° (Epoch: 25 April)

Date Brightness Start Highest point End Pass type
(mag) Time Alt. Az. Time Alt. Az. Time Alt. Az.
30 Apr 3.8 05:28:14 10° SSE 05:29:48 13° SE 05:31:21 10° ESE visible
02 May 2.8 05:04:31 11° SSW 05:07:06 26° SE 05:09:49 10° E visible
03 May 3.7 04:07:48 13° SE 04:07:48 13° SE 04:09:10 10° ESE visible
04 May 1.4 04:43:11 31° SSW 04:44:26 57° SE 04:47:33 10° ENE visible
05 May 3.5 03:46:17 19° E 03:46:17 19° E 03:47:35 10° E visible
05 May 2.2 05:18:35 10° W 05:21:32 35° NNW 05:24:29 10° NE visible
